Regional Weather Roundup
Issued by NWS

Home | Current Version | Previous Version | Graphics & Text | Print | Product List | Glossary On
Versions: 1 2 3 4 5 6 7 8 9 10 11 12 13 14 15 16 17 18 19 20 21 22 23 24 25 26 27 28 29 30 31 32 33 34 35 36 37 38 39 40 41 42 43 44 45 46 47 48 49 50
000
ASUS43 KIND 280209
RWRIN

WEATHER ROUNDUP FOR INDIANA
NATIONAL WEATHER SERVICE INDIANAPOLIS IN
1000 PM EDT FRI MAR 27 2015

NOTE: "FAIR" INDICATES FEW OR NO CLOUDS BELOW 12,000 FEET WITH NO
SIGNIFICANT WEATHER AND/OR OBSTRUCTIONS TO VISIBILITY.

* - STATION DOES NOT REPORT WEATHER SUCH AS PRECIPITATION OR FOG.

+ - STATION NOT QUALITY CONTROLLED BY THE NATIONAL WEATHER SERVICE.
    USE DATA WITH CAUTION...ESPECIALLY DEWPOINT AND RELATIVE
    HUMIDITY OBSERVATIONS.

INZ001>003-010>013-019-020-280300-
NORTHWEST INDIANA

CITY           SKY/WX    TMP DP  RH WIND       PRES   REMARKS
GARY /AIRPORT/ PTCLDY    27   9  46 N14       30.21R WCI  15
KNOX *+          N/A     21   1  42 N12       30.17R WCI   9
LA PORTE +     MOCLDY    24  14  64 N16       30.17S WCI  11
MICHIGAN CITY+ CLOUDY    23  10  58 N10G21    30.19S WCI  12
MONTICELLO +   CLEAR     22  13  68 N14       30.17S WCI   9
RENSSELAER +   CLEAR     25  18  74 N9        30.19R WCI  15
VALPARAISO     FAIR      21  12  68 N12G18    30.18R WCI   9

$$

LMZ046-743>745-280300-
SOUTHERN LAKE MICHIGAN

STATION/POSITION TIME  TEMP WIND        PRES
                       AIR  DIR/SP/G
                 (UTC) (F)  (DEG/KT/KT) (MB)
BURNS HARBOR     0200   26   20/ 20/ 24 1022.7S
MICHIGAN CITY    0200   23  350/ 21/ 25   N/A

$$

INZ004-005-014>016-021>024-280300-
NORTH CENTRAL INDIANA

CITY           SKY/WX    TMP DP  RH WIND       PRES   REMARKS
GOSHEN         CLEAR     21  11  65 NW10      30.14R WCI  10
LOGANSPORT +   PTCLDY    23  12  63 N14       30.17R WCI  11
PERU/GRISSOM   MOCLDY    23  11  60 N14G21    30.13R WCI  10
ROCHESTER +    PTCLDY    25  14  63 N9        30.16R WCI  15
SOUTH BEND     CLEAR     21  11  65 NW8       30.16S WCI  11
WARSAW +       CLEAR     21  12  68 NW8       30.14R WCI  12

$$

INZ006>009-017-018-025>027-280300-
NORTHEAST INDIANA

CITY           SKY/WX    TMP DP  RH WIND       PRES   REMARKS
ANGOLA *+      CLEAR     21  12  68 NW8       30.10R WCI  12
AUBURN +       CLEAR     25  12  58 NW10G20   30.12R WCI  15
FORT WAYNE     CLEAR     24  13  62 NW10      30.12R WCI  14
HUNTINGTON +   FAIR      22   8  54 NW7G16    30.13R WCI  13

$$

INZ028-029-035-036-043>045-051>053-280300-
WEST CENTRAL INDIANA

CITY           SKY/WX    TMP DP  RH WIND       PRES   REMARKS
CRAWFORDSVL +  CLEAR     22   8  54 N9        30.16S WCI  12
GREENCASTLE +  CLEAR     27  12  54 N9        30.16R WCI  17
LAFAYETTE      CLEAR     23  14  68 N10       30.18R WCI  12
TERRE HAUTE    CLEAR     28  17  63 NE12      30.17R WCI  18

$$

INZ030>032-037>040-046>048-054>057-064-065-280300-
CENTRAL INDIANA

CITY           SKY/WX    TMP DP  RH WIND       PRES   REMARKS
CP ATTERBURY + FLURRIES  28  19  69 N13       30.15R WCI  18
COLUMBUS       MOCLDY    28  16  59 NW12      30.14R WCI  18
FISHERS *+     CLOUDY    25  18  74 N9G17     30.14  WCI  15
FRANKFORT +    CLEAR     24  17  74 NW13      30.17R WCI  13
GREENWOOD *+   CLOUDY    27  10  50 N14G20    30.14R WCI  15
INDIANAPOLIS   MOCLDY    26  11  52 NW16      30.14R WCI  14
-EAGLE CREEK   CLOUDY    26  14  60 N15G21    30.14R WCI  14
KOKOMO *+        N/A     23  12  63 N14G21    30.15R WCI  11
MARION +       PTCLDY    23  11  60 N13G18    30.14R WCI  11
MT COMFORT *+  MOCLDY    27  10  50 N16       30.14R WCI  14
SHELBYVILLE    CLOUDY    29  14  53 NW15      30.13R WCI  18
ZIONSVILLE +   MOCLDY    25  12  57 N12G23    30.15R WCI  15

$$

INZ033-034-041-042-049-050-058-059-280300-
EAST CENTRAL INDIANA

CITY           SKY/WX    TMP DP  RH WIND       PRES   REMARKS
MUNCIE         FAIR      25  14  63 NW12      30.11R WCI  14

$$

INZ060-061-067>069-081>083-085>088-280300-
SOUTHWEST INDIANA

CITY           SKY/WX    TMP DP  RH WIND       PRES   REMARKS
EVANSVILLE     PTCLDY    35  21  56 N9        30.16R WCI  28
HUNTINGBURG *+ PTCLDY    30  19  64 N7        30.15S WCI  23
WASHINGTON +   FAIR      30  18  59 N8        30.15S WCI  23

$$

INZ062-063-066-070>080-084-089>092-280300-
SOUTH CENTRAL AND SOUTHEAST INDIANA

CITY           SKY/WX    TMP DP  RH WIND       PRES   REMARKS
BEDFORD +      PTCLDY    30  14  51 N8        30.13R WCI  23
BLOOMINGTON    PTCLDY    27  17  66 N14       30.14R WCI  16
NORTH VERNON + MOCLDY    30  16  55 NW9       30.12R WCI  22
SEYMOUR +      PTCLDY    32  16  51 N13       30.14R WCI  22

$$



USA.gov is the U.S. government's official web portal to all federal, state and local government web resources and services.